Location: Aalen
(48.8330°N, 10.1000°E)
Time: 18:00:52
(UTC+02:00)

M-CUBED/EXP-1 PRIME - Pass Details

Date: 22 September 2021
Orbit: 427 x 655 km, 101.7° (Epoch: 18 October)

Event Time Altitude Azimuth Distance (km) Brightness Sun altitude
Rises 04:50:34 0° 38° (NE) 2,441 ? -22.2°
Reaches altitude 10° 04:53:29 10° 67° (ENE) 1,542 ? -21.8°
Maximum altitude 04:55:07 13° 97° (E) 1,355 ? -21.6°
Drops below altitude 10° 04:56:43 10° 127° (SE) 1,523 ? -21.3°
Enters shadow 04:59:27 - 156° (SSE) 2,345 ? -20.9°
